Flag for Germany Past Weather in Heidenheim an der Brenz, Baden-Württemberg, Germany — Yesterday and Last 2 Weeks

Now
66 °F

Scattered clouds.


Feels Like: 66 °F
Forecast: 54 / 70 °F
Wind: 8 mph from West

Location: Laupheim Airport

Current Time: Jun 27, 2016 at 1:16:59 PM

Latest Report: Jun 27, 2016 at 12:20 PM


Visibility: N/A

Pressure: 30.18 "Hg

Humidity: 46%

Dew Point: 45 °F

Location of Heidenheim an der BrenzLocation

Past Weather in Heidenheim an der Brenz — Graph

°F

Heidenheim an der Brenz Temperature Yesterday

Maximum temperature yesterday: 66 °F (at 2:20 PM)
Minimum temperature yesterday: 57 °F (at 5:20 AM)
Average temperature yesterday: 61 °F

High & Low Weather Summary for the Past Weeks

 TemperatureHumidityPressure
High90 °F (Jun 23, 4:20 PM)100% (Jun 20, 2:20 AM)30.30 "Hg (Jun 20, 2:20 AM)
Low46 °F (Jun 20, 5:20 AM)31% (Jun 23, 4:20 PM)29.59 "Hg (Jun 14, 2:20 PM)
Average62 °F77%29.98 "Hg
* Reported Jun 12 11:20 AM — Jun 27 11:20 AM, Heidenheim an der Brenz, Weather by CustomWeather, © 2016

Note: Actual official high and low records may vary slightly from our data, if they occured in-between our weather recording intervals... More about our weather records

Advertising

Heidenheim an der Brenz Weather History for the Previous 24 Hours

Scroll right to see more
 ConditionsComfort  
Time TempWeatherWind HumidityBarometerVisibility
11:20 AM
Mon, Jun 27
63 °FScattered clouds.10 mph56%30.18 "HgN/A
10:20 AM63 °FScattered clouds.3 mph64%30.18 "HgN/A
9:20 AM59 °FPassing clouds.3 mph72%30.18 "HgN/A
8:20 AM57 °FPassing clouds.5 mph77%30.18 "HgN/A
7:20 AM55 °FPassing clouds.6 mph88%30.18 "HgN/A
6:20 AM54 °FPassing clouds.5 mph94%30.18 "HgN/A
5:20 AM54 °FPassing clouds.5 mph94%30.18 "HgN/A
4:20 AM54 °FFog.5 mph94%30.15 "HgN/A
3:20 AM55 °FPassing clouds.3 mph94%30.15 "HgN/A
2:20 AM57 °FPartly cloudy.2 mph88%30.15 "HgN/A
1:20 AM57 °FSprinkles. Partly cloudy.No wind88%30.15 "HgN/A
12:20 AM57 °FPassing clouds.2 mph88%30.15 "HgN/A
11:50 PM
Sun, Jun 26
57 °FSprinkles. Passing clouds.5 mph88%30.15 "Hg5 mi
11:20 PM59 °FPassing clouds.2 mph82%30.15 "HgN/A
10:20 PM61 °FPartly sunny.3 mph72%30.12 "HgN/A
9:20 PM61 °FScattered showers. Broken clouds.3 mph77%30.12 "HgN/A
8:20 PM63 °FBroken clouds.8 mph64%30.09 "HgN/A
7:20 PM63 °FPartly sunny.7 mph68%30.09 "HgN/A
6:20 PM64 °FPartly sunny.7 mph64%30.09 "HgN/A
5:20 PM64 °FPartly sunny.5 mph60%30.09 "HgN/A
4:20 PM66 °FBroken clouds.6 mph52%30.09 "HgN/A
3:20 PM66 °FBroken clouds.3 mph52%30.09 "HgN/A
2:20 PM66 °FPartly sunny.5 mph52%30.12 "HgN/A
1:20 PM64 °FPartly sunny.5 mph60%30.12 "HgN/A
Weather by CustomWeather, © 2016

See weather overviewHow to use our weather pages